�������l�o���
Date,Time,MP-1(��Sv/h),MP-2(��Sv/h),MP-3(��Sv/h),MP-4(��Sv/h),MP-5(��Sv/h),MP-6(��Sv/h),MP-7(��Sv/h),MP-8(��Sv/h),����,����(m/s),���J
2022/09/17,00:00,0.594,0.865,0.544,1.051,0.759,0.343,0.599,0.563,��,6.8,��
2022/09/17,00:10,0.593,0.865,0.544,1.056,0.759,0.342,0.600,0.563,��,5.9,��
2022/09/17,00:20,0.594,0.865,0.544,1.054,0.758,0.344,0.599,0.564,��,6.2,��
2022/09/17,00:30,0.595,0.864,0.545,1.054,0.759,0.344,0.601,0.565,��,5.9,��
2022/09/17,00:40,0.593,0.865,0.545,1.057,0.757,0.344,0.601,0.563,��쐼,5.3,��
2022/09/17,00:50,0.594,0.864,0.543,1.056,0.758,0.345,0.601,0.564,��,4.6,��
2022/09/17,01:00,0.593,0.864,0.544,1.054,0.758,0.345,0.600,0.564,��,4.6,��
2022/09/17,01:10,0.592,0.866,0.543,1.054,0.759,0.343,0.600,0.563,��쐼,3.2,��
2022/09/17,01:20,0.594,0.864,0.542,1.054,0.758,0.343,0.600,0.564,��쐼,2.3,��
2022/09/17,01:30,0.594,0.864,0.543,1.057,0.757,0.345,0.602,0.564,��,3.0,��
2022/09/17,01:40,0.593,0.867,0.544,1.054,0.760,0.343,0.601,0.563,��,3.0,��
2022/09/17,01:50,0.594,0.863,0.543,1.054,0.758,0.344,0.601,0.564,��,2.6,��
2022/09/17,02:00,0.594,0.865,0.544,1.054,0.757,0.345,0.602,0.564,��쐼,2.0,��
2022/09/17,02:10,0.595,0.867,0.543,1.057,0.757,0.344,0.602,0.563,��쐼,2.3,��
2022/09/17,02:20,0.593,0.864,0.542,1.054,0.760,0.344,0.603,0.565,��,2.8,��
2022/09/17,02:30,0.594,0.866,0.543,1.053,0.759,0.344,0.602,0.564,��,2.6,��
2022/09/17,02:40,0.592,0.864,0.544,1.054,0.759,0.344,0.601,0.564,��,2.2,�L
2022/09/17,02:50,0.596,0.865,0.544,1.056,0.756,0.345,0.601,0.562,��,2.3,�L
2022/09/17,03:00,0.595,0.863,0.544,1.057,0.759,0.344,0.601,0.563,��,2.3,��
2022/09/17,03:10,0.594,0.865,0.544,1.056,0.758,0.343,0.602,0.564,��,2.8,��
2022/09/17,03:20,0.594,0.865,0.544,1.054,0.759,0.342,0.602,0.563,��쓌,2.3,�L
2022/09/17,03:30,0.594,0.865,0.545,1.056,0.760,0.342,0.603,0.565,��쓌,2.0,��
2022/09/17,03:40,0.595,0.866,0.544,1.055,0.758,0.344,0.603,0.565,��쓌,2.8,��
2022/09/17,03:50,0.593,0.863,0.544,1.056,0.758,0.344,0.602,0.566,��쓌,4.5,��
2022/09/17,04:00,0.594,0.866,0.545,1.056,0.758,0.345,0.604,0.566,��쓌,4.9,��
2022/09/17,04:10,0.594,0.865,0.544,1.057,0.758,0.343,0.601,0.564,��쓌,4.0,��
2022/09/17,04:20,0.595,0.864,0.545,1.056,0.758,0.344,0.602,0.564,��,3.0,��
2022/09/17,04:30,0.593,0.865,0.546,1.057,0.759,0.343,0.602,0.564,��,2.2,��
2022/09/17,04:40,0.594,0.864,0.546,1.054,0.757,0.342,0.601,0.566,��,2.5,��
2022/09/17,04:50,0.596,0.865,0.545,1.058,0.757,0.344,0.602,0.563,��,4.3,��
2022/09/17,05:00,0.593,0.864,0.543,1.054,0.757,0.344,0.602,0.565,��,4.9,��
2022/09/17,05:10,0.595,0.862,0.544,1.056,0.758,0.343,0.601,0.564,��,5.1,��
2022/09/17,05:20,0.593,0.863,0.544,1.056,0.758,0.343,0.603,0.564,��,4.8,��
2022/09/17,05:30,0.592,0.863,0.545,1.054,0.759,0.344,0.602,0.564,��,5.4,��
2022/09/17,05:40,0.592,0.864,0.543,1.055,0.758,0.342,0.602,0.563,��,4.9,��
2022/09/17,05:50,0.594,0.865,0.544,1.055,0.760,0.342,0.601,0.564,��,4.1,��
2022/09/17,06:00,0.593,0.865,0.545,1.053,0.758,0.344,0.603,0.564,��,3.8,��
2022/09/17,06:10,0.593,0.865,0.543,1.056,0.757,0.344,0.601,0.563,��,3.7,��
2022/09/17,06:20,0.594,0.865,0.544,1.055,0.759,0.345,0.602,0.565,��,3.5,��
2022/09/17,06:30,0.594,0.865,0.542,1.053,0.759,0.344,0.602,0.563,��,3.5,��
2022/09/17,06:40,0.594,0.867,0.544,1.055,0.758,0.344,0.603,0.565,��쓌,3.6,��
2022/09/17,06:50,0.593,0.865,0.544,1.054,0.759,0.343,0.604,0.563,��쓌,3.3,��
2022/09/17,07:00,0.594,0.866,0.543,1.054,0.756,0.342,0.602,0.566,��,3.0,��
2022/09/17,07:10,0.594,0.865,0.543,1.054,0.757,0.342,0.602,0.564,��,3.0,��
2022/09/17,07:20,0.593,0.867,0.544,1.056,0.758,0.343,0.603,0.563,��쓌,3.7,��
2022/09/17,07:30,0.594,0.863,0.543,1.054,0.758,0.342,0.602,0.564,��쓌,3.4,��
2022/09/17,07:40,0.594,0.862,0.543,1.056,0.758,0.342,0.602,0.564,��쓌,2.8,��
2022/09/17,07:50,0.593,0.864,0.543,1.055,0.758,0.341,0.602,0.563,��쓌,2.5,��
2022/09/17,08:00,0.594,0.863,0.544,1.054,0.758,0.342,0.602,0.562,��쓌,1.9,��
2022/09/17,08:10,0.593,0.861,0.543,1.054,0.756,0.342,0.602,0.563,�쓌,1.7,��
2022/09/17,08:20,0.591,0.861,0.541,1.056,0.756,0.342,0.601,0.564,��쓌,2.2,��
2022/09/17,08:30,0.592,0.863,0.542,1.054,0.756,0.343,0.601,0.562,�쓌,2.2,��
2022/09/17,08:40,0.591,0.865,0.541,1.054,0.756,0.342,0.601,0.561,�쓌,2.6,��
2022/09/17,08:50,0.593,0.864,0.541,1.057,0.756,0.341,0.601,0.560,��쓌,3.9,��
2022/09/17,09:00,0.592,0.863,0.541,1.055,0.756,0.342,0.601,0.561,��쓌,3.9,��
2022/09/17,09:10,0.592,0.864,0.541,1.057,0.757,0.342,0.600,0.561,��쓌,4.9,��
2022/09/17,09:20,0.591,0.863,0.541,1.056,0.757,0.343,0.602,0.561,�쓌,4.2,��
2022/09/17,09:30,0.592,0.864,0.543,1.057,0.758,0.343,0.602,0.562,��쓌,4.1,��
2022/09/17,09:40,0.592,0.866,0.543,1.055,0.757,0.342,0.603,0.562,��쓌,4.4,��
2022/09/17,09:50,0.592,0.863,0.542,1.052,0.756,0.341,0.602,0.560,��쓌,5.4,��
2022/09/17,10:00,0.592,0.863,0.542,1.055,0.756,0.342,0.601,0.560,�쓌,5.2,��
2022/09/17,10:10,0.591,0.864,0.541,1.055,0.757,0.342,0.602,0.562,��쓌,5.9,��
2022/09/17,10:20,0.593,0.864,0.542,1.055,0.756,0.343,0.602,0.561,��쓌,6.6,��
2022/09/17,10:30,0.594,0.863,0.543,1.056,0.756,0.342,0.602,0.562,��쓌,6.8,��
2022/09/17,10:40,0.593,0.864,0.542,1.056,0.757,0.342,0.602,0.562,�쓌,6.7,��
2022/09/17,10:50,0.594,0.864,0.542,1.057,0.758,0.343,0.603,0.561,�쓌,5.4,��
2022/09/17,11:00,0.592,0.862,0.543,1.056,0.757,0.344,0.602,0.563,�쓌,4.8,��
2022/09/17,11:10,0.593,0.864,0.542,1.054,0.758,0.344,0.603,0.563,�쓌,5.1,��
2022/09/17,11:20,0.594,0.863,0.543,1.056,0.759,0.342,0.603,0.563,�쓌,5.1,��
2022/09/17,11:30,0.591,0.864,0.543,1.055,0.759,0.343,0.603,0.562,�쓌,5.7,��
2022/09/17,11:40,0.594,0.864,0.542,1.058,0.761,0.342,0.602,0.561,��쓌,5.3,��
2022/09/17,11:50,0.595,0.864,0.541,1.057,0.759,0.343,0.604,0.564,��쓌,6.2,��
2022/09/17,12:00,0.594,0.861,0.543,1.056,0.757,0.343,0.601,0.562,��쓌,7.9,��
2022/09/17,12:10,0.594,0.865,0.543,1.057,0.759,0.342,0.604,0.564,��쓌,8.5,��
2022/09/17,12:20,0.593,0.866,0.544,1.056,0.759,0.343,0.604,0.563,��쓌,8.3,��
2022/09/17,12:30,0.593,0.867,0.544,1.055,0.759,0.342,0.602,0.561,��쓌,8.5,��
2022/09/17,12:40,0.593,0.865,0.543,1.058,0.760,0.342,0.602,0.564,��쓌,8.5,��
2022/09/17,12:50,0.594,0.864,0.544,1.055,0.759,0.342,0.602,0.563,��쓌,9.0,��
2022/09/17,13:00,0.594,0.865,0.543,1.060,0.759,0.342,0.603,0.564,��쓌,9.5,��
2022/09/17,13:10,0.594,0.865,0.543,1.058,0.761,0.342,0.603,0.562,��쓌,9.3,��
2022/09/17,13:20,0.593,0.864,0.543,1.056,0.760,0.342,0.601,0.564,��쓌,8.8,��
2022/09/17,13:30,0.597,0.864,0.544,1.058,0.759,0.344,0.603,0.563,��쓌,9.6,��
2022/09/17,13:40,0.594,0.867,0.545,1.057,0.759,0.342,0.602,0.563,��쓌,9.8,��
2022/09/17,13:50,0.596,0.864,0.543,1.057,0.761,0.343,0.602,0.565,��쓌,10.4,��
2022/09/17,14:00,0.596,0.866,0.543,1.057,0.760,0.343,0.601,0.563,��쓌,10.7,��
2022/09/17,14:10,0.594,0.865,0.543,1.057,0.759,0.341,0.602,0.563,��쓌,9.6,��
2022/09/17,14:20,0.594,0.866,0.543,1.058,0.759,0.343,0.601,0.563,��쓌,8.8,��
2022/09/17,14:30,0.593,0.864,0.542,1.058,0.760,0.343,0.599,0.563,��쓌,9.1,��
2022/09/17,14:40,0.594,0.867,0.544,1.057,0.761,0.342,0.601,0.562,��쓌,9.8,��
2022/09/17,14:50,0.594,0.864,0.543,1.057,0.761,0.342,0.603,0.564,��쓌,8.8,��
2022/09/17,15:00,0.596,0.864,0.545,1.056,0.762,0.343,0.601,0.563,��쓌,9.0,��
2022/09/17,15:10,0.594,0.864,0.543,1.057,0.765,0.342,0.602,0.565,��쓌,9.3,��
2022/09/17,15:20,0.595,0.864,0.545,1.060,0.765,0.342,0.602,0.565,��쓌,10.0,��
2022/09/17,15:30,0.595,0.866,0.544,1.059,0.765,0.345,0.600,0.564,��쓌,9.7,��
2022/09/17,15:40,0.593,0.865,0.544,1.059,0.762,0.346,0.601,0.563,��쓌,9.9,��
2022/09/17,15:50,0.594,0.867,0.545,1.056,0.762,0.344,0.601,0.563,��쓌,10.2,��
2022/09/17,16:00,0.595,0.867,0.545,1.058,0.762,0.346,0.601,0.562,��쓌,9.3,��
2022/09/17,16:10,0.594,0.867,0.544,1.055,0.761,0.343,0.601,0.562,��,8.8,��
2022/09/17,16:20,0.595,0.867,0.544,1.056,0.763,0.343,0.599,0.562,��,8.9,��
2022/09/17,16:30,0.596,0.866,0.544,1.059,0.760,0.342,0.599,0.563,��쓌,9.3,��
2022/09/17,16:40,0.594,0.864,0.544,1.060,0.761,0.343,0.600,0.563,��쓌,8.5,��
2022/09/17,16:50,0.596,0.864,0.542,1.058,0.761,0.341,0.600,0.562,��쓌,8.8,��
2022/09/17,17:00,0.594,0.864,0.543,1.059,0.760,0.343,0.600,0.561,��,8.9,��
2022/09/17,17:10,0.595,0.865,0.543,1.055,0.762,0.343,0.599,0.563,��,7.3,��
2022/09/17,17:20,0.594,0.865,0.544,1.058,0.760,0.345,0.600,0.564,��,6.8,��
2022/09/17,17:30,0.595,0.866,0.543,1.056,0.763,0.345,0.601,0.564,��,8.1,��
2022/09/17,17:40,0.595,0.867,0.544,1.058,0.759,0.344,0.600,0.563,��,9.1,��
2022/09/17,17:50,0.593,0.866,0.544,1.058,0.761,0.345,0.600,0.563,��,8.6,��
2022/09/17,18:00,0.593,0.868,0.545,1.059,0.760,0.344,0.601,0.563,��,8.6,��
2022/09/17,18:10,0.593,0.865,0.545,1.062,0.761,0.344,0.601,0.564,��,9.0,��
2022/09/17,18:20,0.593,0.865,0.544,1.057,0.759,0.344,0.602,0.564,��,9.1,��
2022/09/17,18:30,0.593,0.867,0.543,1.058,0.761,0.343,0.602,0.563,��,9.5,��
2022/09/17,18:40,0.593,0.868,0.545,1.057,0.761,0.344,0.602,0.565,��,8.4,�L
2022/09/17,18:50,0.596,0.864,0.544,1.059,0.761,0.343,0.601,0.564,��,7.5,��
2022/09/17,19:00,0.594,0.867,0.545,1.060,0.762,0.343,0.602,0.566,��,7.7,��
2022/09/17,19:10,0.595,0.867,0.544,1.058,0.759,0.343,0.601,0.564,��,6.3,��
2022/09/17,19:20,0.593,0.865,0.546,1.060,0.761,0.344,0.601,0.564,��,7.8,��
2022/09/17,19:30,0.594,0.865,0.544,1.060,0.761,0.345,0.601,0.565,��,7.3,��
2022/09/17,19:40,0.596,0.867,0.545,1.059,0.760,0.343,0.601,0.563,��,7.9,��
2022/09/17,19:50,0.594,0.866,0.545,1.058,0.760,0.343,0.601,0.565,��,7.4,��
2022/09/17,20:00,0.595,0.867,0.544,1.061,0.762,0.343,0.601,0.564,��,7.0,��
2022/09/17,20:10,0.595,0.869,0.544,1.060,0.762,0.344,0.601,0.565,��쐼,6.3,��
2022/09/17,20:20,0.593,0.866,0.544,1.058,0.760,0.343,0.600,0.564,��,6.7,��
2022/09/17,20:30,0.596,0.867,0.545,1.059,0.759,0.344,0.601,0.565,��,7.3,��
2022/09/17,20:40,0.595,0.866,0.545,1.059,0.761,0.343,0.602,0.566,��,7.1,��
2022/09/17,20:50,0.595,0.869,0.546,1.060,0.759,0.343,0.601,0.564,��,6.0,��
2022/09/17,21:00,0.595,0.865,0.546,1.060,0.759,0.344,0.602,0.563,��,6.7,��
2022/09/17,21:10,0.594,0.868,0.543,1.060,0.762,0.343,0.601,0.563,��,7.7,��
2022/09/17,21:20,0.594,0.868,0.546,1.058,0.761,0.344,0.600,0.563,��,8.5,��
2022/09/17,21:30,0.596,0.867,0.545,1.058,0.760,0.344,0.601,0.564,��,6.6,��
2022/09/17,21:40,0.595,0.867,0.546,1.059,0.763,0.344,0.601,0.563,��,6.9,��
2022/09/17,21:50,0.595,0.867,0.543,1.058,0.761,0.345,0.601,0.565,��,6.5,��
2022/09/17,22:00,0.594,0.867,0.545,1.060,0.760,0.344,0.603,0.564,��,7.6,��
2022/09/17,22:10,0.595,0.867,0.545,1.060,0.760,0.343,0.601,0.564,��,6.9,��
2022/09/17,22:20,0.594,0.867,0.544,1.059,0.761,0.343,0.601,0.563,��,6.8,��
2022/09/17,22:30,0.594,0.868,0.546,1.060,0.762,0.344,0.599,0.564,��,7.6,��
2022/09/17,22:40,0.596,0.868,0.546,1.058,0.760,0.344,0.601,0.565,��,7.1,��
2022/09/17,22:50,0.594,0.864,0.546,1.059,0.760,0.345,0.600,0.564,��,7.0,��
2022/09/17,23:00,0.594,0.865,0.544,1.060,0.761,0.342,0.601,0.563,��,6.9,��
2022/09/17,23:10,0.595,0.867,0.545,1.060,0.759,0.343,0.602,0.566,��,7.2,�L
2022/09/17,23:20,0.594,0.865,0.545,1.060,0.761,0.344,0.600,0.564,��,7.2,�L
2022/09/17,23:30,0.594,0.865,0.546,1.058,0.761,0.344,0.601,0.563,��,7.4,�L
2022/09/17,23:40,0.594,0.868,0.544,1.058,0.760,0.344,0.601,0.564,��,7.5,��
2022/09/17,23:50,0.595,0.864,0.543,1.060,0.759,0.342,0.602,0.564,��,7.6,��
